When you browse on this site, cookies collect data to enhance your experience and personalize the content and advertising you see.
Visit our Privacy Policy to learn more. By continuing to use the site, you agree to this use of cookies and data.
  • In Portugal
  • List of Countries
  • For 7 days
  • Water Temperature
  • Satellite Maps
  • Weather Map
  • Weather Widgets
  • user-avatar
    Login

    Hourly Weather Svatoshicy

    Today, 26 April, Friday

    Time Temperature Precipitation Wind Pressure Humidity
    00:00 +13°C° 0 mm 2 mps 747 mmHg 59%
    01:00 +12°C° 0 mm 2 mps 747 mmHg 61%
    02:00 +10°C° 0 mm 1 mps 747 mmHg 63%
    03:00 +10°C° 0 mm 1 mps 747 mmHg 63%
    04:00 +10°C° 0 mm 1 mps 747 mmHg 64%
    05:00 +10°C° 0 mm 1 mps 747 mmHg 65%
    06:00 +12°C° 0 mm 2 mps 747 mmHg 62%
    07:00 +14°C° 0 mm 2 mps 747 mmHg 58%
    08:00 +16°C° 0 mm 2 mps 746 mmHg 55%
    09:00 +17°C° 0 mm 3 mps 746 mmHg 51%
    10:00 +19°C° 0 mm 4 mps 746 mmHg 46%
    11:00 +20°C° 0 mm 4 mps 746 mmHg 42%
    12:00 +21°C° 0 mm 4 mps 746 mmHg 41%
    13:00 +21°C° 0 mm 4 mps 745 mmHg 40%
    14:00 +21°C° 0 mm 4 mps 745 mmHg 39%
    15:00 +21°C° 0 mm 4 mps 745 mmHg 41%
    16:00 +21°C° 0 mm 3 mps 744 mmHg 44%
    17:00 +21°C° 0 mm 3 mps 744 mmHg 46%
    18:00 +19°C° 0 mm 3 mps 744 mmHg 50%
    19:00 +17°C° 0 mm 3 mps 744 mmHg 53%
    20:00 +14°C° 0 mm 3 mps 743 mmHg 57%
    21:00 +13°C° 0 mm 3 mps 743 mmHg 57%
    22:00 +13°C° 0 mm 3 mps 743 mmHg 58%
    23:00 +12°C° 0 mm 3 mps 743 mmHg 58%

    Tomorrow, 27 April, Saturday

    Time Temperature Precipitation Wind Pressure Humidity
    00:00 +11°C° 0 mm 3 mps 743 mmHg 59%
    01:00 +11°C° 0 mm 3 mps 742 mmHg 59%
    02:00 +10°C° 0 mm 2 mps 742 mmHg 60%
    03:00 +10°C° 0 mm 3 mps 742 mmHg 62%
    04:00 +10°C° 0 mm 3 mps 741 mmHg 65%
    05:00 +9°C° 0 mm 3 mps 741 mmHg 67%
    06:00 +11°C° 0 mm 3 mps 741 mmHg 66%
    07:00 +13°C° 0 mm 3 mps 741 mmHg 66%
    08:00 +14°C° 0 mm 3 mps 741 mmHg 65%
    09:00 +17°C° 0 mm 3 mps 740 mmHg 62%
    10:00 +19°C° 0 mm 3 mps 740 mmHg 59%
    11:00 +21°C° 0 mm 3 mps 740 mmHg 57%
    12:00 +21°C° 0.2 mm 3 mps 739 mmHg 56%
    13:00 +22°C° 0.2 mm 3 mps 739 mmHg 56%
    14:00 +22°C° 0.2 mm 3 mps 739 mmHg 55%
    15:00 +23°C° 0.7 mm 2 mps 738 mmHg 57%
    16:00 +21°C° 0.7 mm 2 mps 738 mmHg 58%
    17:00 +21°C° 0.7 mm 2 mps 738 mmHg 60%
    18:00 +20°C° 0.2 mm 1 mps 738 mmHg 67%
    19:00 +19°C° 0.2 mm 1 mps 738 mmHg 73%
    20:00 +16°C° 0.2 mm 1 mps 738 mmHg 80%
    21:00 +15°C° 0.1 mm 1 mps 737 mmHg 82%
    22:00 +15°C° 0.1 mm 1 mps 737 mmHg 85%
    23:00 +14°C° 0.1 mm 1 mps 737 mmHg 87%

    Day after tomorrow, 28 April, Sunday

    Time Temperature Precipitation Wind Pressure Humidity
    00:00 +14°C° 0 mm 1 mps 737 mmHg 88%
    01:00 +12°C° 0 mm 0 mps 737 mmHg 88%
    02:00 +12°C° 0 mm 0 mps 737 mmHg 89%
    03:00 +12°C° 0 mm 1 mps 737 mmHg 89%
    04:00 +12°C° 0 mm 1 mps 737 mmHg 89%
    05:00 +12°C° 0 mm 2 mps 737 mmHg 90%
    06:00 +12°C° 0 mm 3 mps 738 mmHg 83%
    07:00 +13°C° 0 mm 4 mps 738 mmHg 77%
    08:00 +14°C° 0 mm 5 mps 739 mmHg 71%
    09:00 +15°C° 0 mm 5 mps 739 mmHg 69%
    10:00 +16°C° 0 mm 6 mps 740 mmHg 68%
    11:00 +17°C° 0 mm 6 mps 740 mmHg 66%
    12:00 +17°C° 0 mm 6 mps 740 mmHg 64%
    13:00 +17°C° 0 mm 6 mps 741 mmHg 62%
    14:00 +16°C° 0 mm 7 mps 741 mmHg 60%
    15:00 +16°C° 0 mm 7 mps 741 mmHg 58%
    16:00 +15°C° 0 mm 6 mps 742 mmHg 57%
    17:00 +15°C° 0 mm 6 mps 742 mmHg 55%
    18:00 +13°C° 0 mm 6 mps 742 mmHg 54%
    19:00 +10°C° 0 mm 6 mps 743 mmHg 53%
    20:00 +8°C° 0 mm 5 mps 744 mmHg 52%
    21:00 +7°C° 0 mm 5 mps 744 mmHg 52%
    22:00 +7°C° 0 mm 5 mps 745 mmHg 52%
    23:00 +6°C° 0 mm 5 mps 745 mmHg 52%

    29 April, Monday

    Time Temperature Precipitation Wind Pressure Humidity
    00:00 +5°C° 0 mm 5 mps 745 mmHg 54%
    01:00 +3°C° 0 mm 5 mps 746 mmHg 56%
    02:00 +3°C° 0 mm 5 mps 746 mmHg 59%
    03:00 +2°C° 0 mm 5 mps 746 mmHg 61%
    04:00 +3°C° 0 mm 4 mps 746 mmHg 63%
    05:00 +1°C° 0 mm 4 mps 746 mmHg 66%
    06:00 +2°C° 0 mm 5 mps 747 mmHg 62%
    07:00 +5°C° 0 mm 5 mps 747 mmHg 59%
    08:00 +5°C° 0 mm 6 mps 747 mmHg 56%
    09:00 +7°C° 0 mm 6 mps 747 mmHg 52%
    10:00 +8°C° 0 mm 6 mps 747 mmHg 49%
    11:00 +9°C° 0 mm 6 mps 747 mmHg 46%
    12:00 +10°C° 0 mm 6 mps 747 mmHg 44%
    13:00 +10°C° 0 mm 5 mps 747 mmHg 43%
    14:00 +12°C° 0 mm 5 mps 746 mmHg 41%
    15:00 +12°C° 0 mm 5 mps 746 mmHg 41%
    16:00 +10°C° 0 mm 5 mps 746 mmHg 42%
    17:00 +11°C° 0 mm 4 mps 746 mmHg 42%
    18:00 +10°C° 0 mm 4 mps 746 mmHg 47%
    19:00 +8°C° 0 mm 3 mps 746 mmHg 52%
    20:00 +5°C° 0 mm 3 mps 746 mmHg 57%
    21:00 +5°C° 0 mm 3 mps 746 mmHg 58%
    22:00 +4°C° 0 mm 3 mps 746 mmHg 60%
    23:00 +3°C° 0 mm 3 mps 746 mmHg 61%

    30 April, Tuesday

    Time Temperature Precipitation Wind Pressure Humidity
    00:00 +4°C° 0 mm 2 mps 746 mmHg 62%
    01:00 +4°C° 0 mm 2 mps 746 mmHg 64%
    02:00 +3°C° 0 mm 2 mps 746 mmHg 66%
    03:00 +3°C° 0 mm 2 mps 745 mmHg 67%
    04:00 +3°C° 0 mm 2 mps 745 mmHg 68%
    05:00 +2°C° 0 mm 2 mps 745 mmHg 69%
    06:00 +3°C° 0 mm 3 mps 745 mmHg 63%
    07:00 +5°C° 0 mm 3 mps 745 mmHg 57%
    08:00 +8°C° 0 mm 3 mps 745 mmHg 51%
    09:00 +8°C° 0 mm 4 mps 744 mmHg 48%
    10:00 +10°C° 0 mm 4 mps 744 mmHg 44%
    11:00 +11°C° 0 mm 4 mps 744 mmHg 41%
    12:00 +12°C° 0 mm 4 mps 744 mmHg 40%
    13:00 +12°C° 0 mm 3 mps 743 mmHg 39%
    14:00 +13°C° 0 mm 3 mps 743 mmHg 38%
    15:00 +13°C° 0 mm 3 mps 742 mmHg 39%
    16:00 +12°C° 0 mm 3 mps 742 mmHg 40%
    17:00 +13°C° 0 mm 2 mps 742 mmHg 41%
    18:00 +12°C° 0 mm 2 mps 742 mmHg 45%
    19:00 +10°C° 0 mm 1 mps 742 mmHg 49%
    20:00 +9°C° 0 mm 1 mps 742 mmHg 53%
    21:00 +9°C° 0 mm 1 mps 741 mmHg 52%
    22:00 +9°C° 0 mm 1 mps 741 mmHg 52%
    23:00 +9°C° 0 mm 1 mps 741 mmHg 52%

    1 May, Wednesday

    Time Temperature Precipitation Wind Pressure Humidity
    00:00 +8°C° 0 mm 1 mps 741 mmHg 53%
    01:00 +8°C° 0 mm 1 mps 741 mmHg 55%
    02:00 +7°C° 0 mm 1 mps 741 mmHg 56%
    03:00 +7°C° 0 mm 1 mps 741 mmHg 58%
    04:00 +6°C° 0 mm 1 mps 741 mmHg 61%
    05:00 +6°C° 0 mm 1 mps 740 mmHg 63%
    06:00 +7°C° 0 mm 1 mps 740 mmHg 60%
    07:00 +9°C° 0 mm 1 mps 740 mmHg 56%
    08:00 +10°C° 0 mm 2 mps 740 mmHg 52%
    09:00 +12°C° 0 mm 2 mps 740 mmHg 48%
    10:00 +13°C° 0 mm 2 mps 740 mmHg 43%
    11:00 +13°C° 0 mm 3 mps 740 mmHg 39%
    12:00 +14°C° 0 mm 2 mps 739 mmHg 39%
    13:00 +14°C° 0 mm 2 mps 739 mmHg 39%
    14:00 +14°C° 0 mm 2 mps 739 mmHg 39%
    15:00 +14°C° 0 mm 2 mps 739 mmHg 41%
    16:00 +13°C° 0 mm 2 mps 738 mmHg 42%
    17:00 +13°C° 0 mm 2 mps 738 mmHg 43%
    18:00 +12°C° 0 mm 1 mps 738 mmHg 47%
    19:00 +10°C° 0 mm 1 mps 738 mmHg 52%
    20:00 +8°C° 0 mm 1 mps 737 mmHg 56%
    21:00 +8°C° 0 mm 1 mps 737 mmHg 57%
    22:00 +7°C° 0 mm 1 mps 737 mmHg 58%
    23:00 +7°C° 0 mm 1 mps 737 mmHg 59%
    Show more